Orbital Elements at Epoch 2459200.5 (2020-Dec-17.0) TDB
Reference: JPL 30 (heliocentric ecliptic J2000)
Element | Value | Uncertainty (1-sigma) | Units |
e | .105252563242536 | 1.805e-08 | |
a | 3.013937103479961 | 1.287e-08 | au |
q | 2.696712497886911 | 5.6547e-08 | au |
i | 11.75069222294315 | 5.9555e-07 | deg |
node | 133.5264475794619 | 5.2119e-06 | deg |
peri | 166.1287854735569 | 1.7382e-05 | deg |
M | 61.66731862232145 | 1.441e-05 | deg |
tp | 2458873.119906277925 (2020-Jan-24.61990628) | 7.6804e-05 | TDB |
period | 1911.171693093316 5.23 | 1.2241e-05 3.351e-08 | d yr |
n | .1883661218408504 | 1.2065e-09 | deg/d |
Q | 3.331161709073011 | 1.4224e-08 | au |
|
| | Orbit Determination Parameters
Additional Information
|